Flag for Japan Weather past 2 weeks in Sapporo, Japan

Now
39 °F

Overcast.


Feels Like: 31 °F
Forecast: 30 / 47 °F
Wind: 12 mph from Northeast

Location: Sapporo


UV Index: 5 (Moderate)

Visibility: 9 mi


Pressure: 30.12 "Hg

Humidity: 50%

Dew point: 21 °F

Location of SapporoLocation

Historic Weather in Sapporo

°F

Sapporo temperature yesterday

Maximum temperature yesterday: 48 °F (at 9:00 AM)
Minimum temperature yesterday: 33 °F (at 6:00 AM)
Average temperature yesterday: 41 °F

Past Weeks' High & Low Weather Summary

 TemperatureHumidityPressure
High61 °F (Apr 14, 2:00 PM)92% (Apr 4, 6:00 AM)30.13 "Hg (Apr 4, 6:00 AM)
Low31 °F (Apr 5, 6:00 AM)15% (Apr 14, 2:00 PM)29.29 "Hg (Apr 4, 6:00 PM)
Average40 °F55%29.81 "Hg
* Reported Apr 3 9:00 PM — Apr 18 9:00 PM, Sapporo, Weather by CustomWeather, © 2014

Note: Actual official high and low records may vary slightly from our data, if they occured in-between our weather recording intervals... More about our weather records

Advertising

Historic Weather Conditions — Data for Previous 24 hours

 ConditionsComfort  
Time TempWeatherWind HumidityBarometerVisibility
9:00 PM
Apr 18
39 °FOvercast.12 mph50%30.12 "Hg9 mi
8:00 PM40 °FQuite cool.12 mph67%30.10 "HgN/A
7:00 PM40 °FChilly.15 mph76%30.08 "HgN/A
6:00 PM40 °FOvercast.16 mph76%30.06 "Hg9 mi
5:00 PM41 °FQuite cool.12 mph74%30.05 "HgN/A
4:00 PM42 °FQuite cool.21 mph72%30.04 "HgN/A
3:00 PM42 °FOvercast.16 mph69%30.04 "Hg9 mi
2:00 PM43 °FQuite cool.14 mph68%30.04 "HgN/A
1:00 PM42 °FQuite cool.20 mph66%30.04 "HgN/A
12:00 PM45 °FPartly sunny.14 mph56%30.04 "Hg12 mi
11:00 AM44 °FQuite cool.20 mph58%30.04 "HgN/A
10:00 AM44 °FQuite cool.20 mph57%30.06 "HgN/A
9:00 AM44 °FOvercast.18 mph52%30.04 "Hg19 mi
1:00 AM38 °FChilly.5 mph37%29.96 "HgN/A
12:00 AM38 °FChilly.3 mph39%29.97 "HgN/A
11:00 PM
Apr 17
37 °FChilly.2 mph49%29.98 "HgN/A
10:00 PM40 °FQuite cool.3 mph33%29.97 "HgN/A
Weather by CustomWeather, © 2014

See weather overview